| time (UTC) | temp F | wind direction | speed MPH | gust MPH | rain 1hr in | rain 24hr in | rain mn in | humidity % | barometer mb |
| 20260509221004 | 68 | 57 | 4.0 | 11.0 | 0.00 | 0.00 | 0.00 | 58 | 1020.2 |
| 20260509220504 | 68 | 286 | 1.0 | 8.0 | 0.00 | 0.00 | 0.00 | 57 | 1020.3 |
| 20260509220015 | 68 | 265 | 1.0 | 8.0 | 0.00 | 0.00 | 0.00 | 59 | 1020.3 |
| 20260509215504 | 68 | 334 | 1.0 | 9.0 | 0.00 | 0.00 | 0.00 | 60 | 1020.3 |
| 20260509215002 | 68 | 178 | 2.0 | 9.0 | 0.00 | 0.00 | 0.00 | 58 | 1020.4 |
| 20260509214510 | 68 | 76 | 1.0 | 8.0 | 0.00 | 0.00 | 0.00 | 60 | 1020.4 |
| 20260509214003 | 69 | 44 | 3.0 | 8.0 | 0.00 | 0.00 | 0.00 | 56 | 1020.4 |
| 20260509213503 | 69 | 51 | 1.0 | 7.0 | 0.00 | 0.00 | 0.00 | 56 | 1020.5 |
| 20260509213023 | 69 | 88 | 1.0 | 7.0 | 0.00 | 0.00 | 0.00 | 57 | 1020.5 |
| 20260509212510 | 69 | 93 | 1.0 | 5.0 | 0.00 | 0.00 | 0.00 | 56 | 1020.5 |
| 20260509212007 | 69 | 360 | 1.0 | 4.0 | 0.00 | 0.00 | 0.00 | 59 | 1020.6 |
| 20260509211508 | 69 | 309 | 1.0 | 4.0 | 0.00 | 0.00 | 0.00 | 58 | 1020.7 |
| 20260509211003 | 69 | 230 | 1.0 | 4.0 | 0.00 | 0.00 | 0.00 | 60 | 1020.7 |
| 20260509210504 | 69 | 239 | 0.0 | 5.0 | 0.00 | 0.00 | 0.00 | 56 | 1020.6 |
| 20260509210013 | 69 | 108 | 1.0 | 8.0 | 0.00 | 0.00 | 0.00 | 61 | 1020.6 |
| 20260509205503 | 68 | 183 | 2.0 | 8.0 | 0.00 | 0.00 | 0.00 | 59 | 1020.6 |
| 20260509205005 | 68 | 137 | 0.0 | 9.0 | 0.00 | 0.00 | 0.00 | 60 | 1020.7 |
| 20260509204508 | 68 | 93 | 3.0 | 9.0 | 0.00 | 0.00 | 0.00 | 59 | 1020.7 |
| 20260509204006 | 68 | 314 | 2.0 | 8.0 | 0.00 | 0.00 | 0.00 | 59 | 1020.8 |
| 20260509203504 | 68 | 64 | 3.0 | 6.0 | 0.00 | 0.00 | 0.00 | 60 | 1020.7 |
| 20260509203015 | 68 | 51 | 0.0 | 6.0 | 0.00 | 0.00 | 0.00 | 65 | 1020.8 |
| 20260509202503 | 67 | 59 | 1.0 | 6.0 | 0.00 | 0.00 | 0.00 | 64 | 1020.8 |
| 20260509202004 | 67 | 341 | 2.0 | 7.0 | 0.00 | 0.00 | 0.00 | 63 | 1021.0 |
| 20260509201510 | 67 | 146 | 2.0 | 7.0 | 0.00 | 0.00 | 0.00 | 63 | 1021.0 |
| 20260509201002 | 67 | 129 | 0.0 | 4.0 | 0.00 | 0.00 | 0.00 | 62 | 1021.2 |
| 20260509200503 | 66 | 325 | 1.0 | 4.0 | 0.00 | 0.00 | 0.00 | 63 | 1021.3 |
| 20260509200011 | 66 | 167 | 1.0 | 5.0 | 0.00 | 0.00 | 0.00 | 69 | 1021.4 |
| 20260509195504 | 66 | 22 | 2.0 | 6.0 | 0.00 | 0.00 | 0.00 | 67 | 1021.5 |
| 20260509195004 | 66 | 34 | 2.0 | 6.0 | 0.00 | 0.00 | 0.00 | 62 | 1021.5 |
| 20260509194510 | 66 | 148 | 0.0 | 7.0 | 0.00 | 0.00 | 0.00 | 65 | 1021.6 |
| 20260509194006 | 66 | 32 | 1.0 | 7.0 | 0.00 | 0.00 | 0.00 | 66 | 1021.6 |
| 20260509193505 | 66 | 123 | 1.0 | 6.0 | 0.00 | 0.00 | 0.00 | 67 | 1021.7 |
| 20260509193018 | 65 | 156 | 2.0 | 6.0 | 0.00 | 0.00 | 0.00 | 63 | 1021.8 |
| 20260509192504 | 65 | 61 | 2.0 | 6.0 | 0.00 | 0.00 | 0.00 | 63 | 1021.9 |
| 20260509192002 | 65 | 51 | 1.0 | 7.0 | 0.00 | 0.00 | 0.00 | 69 | 1022.0 |
| 20260509191510 | 65 | 169 | 2.0 | 7.0 | 0.00 | 0.00 | 0.00 | 68 | 1022.0 |
| 20260509191011 | 65 | 146 | 1.0 | 5.0 | 0.00 | 0.00 | 0.00 | 66 | 1021.9 |
| 20260509190514 | 65 | 9 | 1.0 | 5.0 | 0.00 | 0.00 | 0.00 | 64 | 1021.9 |
| 20260509190030 | 65 | 59 | 1.0 | 5.0 | 0.00 | 0.00 | 0.00 | 67 | 1022.0 |
| 20260509185511 | 64 | 137 | 1.0 | 5.0 | 0.00 | 0.00 | 0.00 | 64 | 1022.0 |
| 20260509185010 | 64 | 61 | 1.0 | 5.0 | 0.00 | 0.00 | 0.00 | 66 | 1022.2 |
| 20260509184540 | 64 | 129 | 2.0 | 6.0 | 0.00 | 0.00 | 0.00 | 66 | 1022.3 |
| 20260509184015 | 64 | 63 | 2.0 | 6.0 | 0.00 | 0.00 | 0.00 | 64 | 1022.3 |
| 20260509183512 | 64 | 105 | 2.0 | 5.0 | 0.00 | 0.00 | 0.00 | 64 | 1022.2 |
| 20260509183040 | 64 | 51 | 2.0 | 5.0 | 0.00 | 0.00 | 0.00 | 62 | 1022.2 |
| 20260509182511 | 63 | 19 | 1.0 | 7.0 | 0.00 | 0.00 | 0.00 | 67 | 1022.2 |
| 20260509182011 | 63 | 111 | 3.0 | 7.0 | 0.00 | 0.00 | 0.00 | 62 | 1022.2 |
| 20260509181528 | 64 | 212 | 2.0 | 8.0 | 0.00 | 0.00 | 0.00 | 66 | 1022.2 |
| 20260509181011 | 63 | 9 | 2.0 | 8.0 | 0.00 | 0.00 | 0.00 | 67 | 1022.2 |
| 20260509180512 | 63 | 59 | 2.0 | 6.0 | 0.00 | 0.00 | 0.00 | 63 | 1022.2 |
| 20260509180031 | 63 | 288 | 1.0 | 6.0 | 0.00 | 0.00 | 0.00 | 68 | 1022.1 |
| 20260509175515 | 63 | 129 | 2.0 | 6.0 | 0.00 | 0.00 | 0.00 | 65 | 1022.2 |
| 20260509175014 | 63 | 309 | 1.0 | 7.0 | 0.00 | 0.00 | 0.00 | 69 | 1022.2 |
| 20260509174528 | 63 | 221 | 1.0 | 7.0 | 0.00 | 0.00 | 0.00 | 68 | 1022.2 |
| 20260509174011 | 63 | 103 | 1.0 | 9.0 | 0.00 | 0.00 | 0.00 | 69 | 1022.3 |
| 20260509173517 | 63 | 51 | 1.0 | 9.0 | 0.00 | 0.00 | 0.00 | 68 | 1022.4 |
| 20260509173031 | 62 | 36 | 3.0 | 9.0 | 0.00 | 0.00 | 0.00 | 71 | 1022.3 |
| 20260509172513 | 62 | 334 | 0.0 | 6.0 | 0.00 | 0.00 | 0.00 | 71 | 1022.3 |
| 20260509172011 | 61 | 51 | 2.0 | 6.0 | 0.00 | 0.00 | 0.00 | 70 | 1022.4 |
| 20260509171531 | 61 | 120 | 2.0 | 6.0 | 0.00 | 0.00 | 0.00 | 70 | 1022.4 |
| 20260509171010 | 61 | 227 | 1.0 | 7.0 | 0.00 | 0.00 | 0.00 | 68 | 1022.4 |
| 20260509170510 | 61 | 39 | 3.0 | 7.0 | 0.00 | 0.00 | 0.00 | 67 | 1022.4 |
| 20260509170030 | 60 | 65 | 1.0 | 5.0 | 0.00 | 0.00 | 0.00 | 70 | 1022.5 |
| 20260509165511 | 60 | 108 | 1.0 | 4.0 | 0.00 | 0.00 | 0.00 | 69 | 1022.4 |
| 20260509165014 | 60 | 51 | 2.0 | 5.0 | 0.00 | 0.00 | 0.00 | 68 | 1022.5 |
| 20260509164527 | 59 | 93 | 1.0 | 5.0 | 0.00 | 0.00 | 0.00 | 70 | 1022.6 |
| 20260509164011 | 59 | 83 | 1.0 | 3.0 | 0.00 | 0.00 | 0.00 | 71 | 1022.7 |
| 20260509163513 | 59 | 137 | 1.0 | 5.0 | 0.00 | 0.00 | 0.00 | 74 | 1022.8 |
| 20260509163039 | 58 | 265 | 1.0 | 5.0 | 0.00 | 0.00 | 0.00 | 74 | 1022.8 |
| 20260509162513 | 58 | 265 | 1.0 | 6.0 | 0.00 | 0.00 | 0.00 | 75 | 1022.9 |
| 20260509162016 | 57 | 178 | 2.0 | 6.0 | 0.00 | 0.00 | 0.00 | 75 | 1023.0 |
| 20260509161530 | 57 | 334 | 1.0 | 6.0 | 0.00 | 0.00 | 0.00 | 76 | 1023.0 |
| 20260509161013 | 56 | 178 | 1.0 | 4.0 | 0.00 | 0.00 | 0.00 | 78 | 1023.0 |
| 20260509160510 | 56 | 149 | 2.0 | 4.0 | 0.00 | 0.00 | 0.00 | 78 | 1022.9 |
| 20260509160030 | 55 | 157 | 1.0 | 4.0 | 0.00 | 0.00 | 0.00 | 79 | 1023.0 |
| 20260509155510 | 55 | 149 | 1.0 | 4.0 | 0.00 | 0.00 | 0.00 | 80 | 1023.0 |
| 20260509155009 | 54 | 344 | 2.0 | 4.0 | 0.00 | 0.00 | 0.00 | 81 | 1022.9 |
| 20260509154529 | 54 | 34 | 2.0 | 5.0 | 0.00 | 0.00 | 0.00 | 82 | 1023.0 |
| 20260509154004 | 53 | 178 | 1.0 | 5.0 | 0.00 | 0.00 | 0.00 | 83 | 1022.9 |
| 20260509153502 | 53 | 51 | 1.0 | 4.0 | 0.00 | 0.00 | 0.00 | 85 | 1023.1 |
| 20260509153013 | 52 | 137 | 0.0 | 4.0 | 0.00 | 0.00 | 0.00 | 85 | 1023.1 |
| 20260509152503 | 52 | 171 | 0.0 | 4.0 | 0.00 | 0.00 | 0.00 | 87 | 1023.3 |
| 20260509152006 | 51 | 68 | 0.0 | 3.0 | 0.00 | 0.00 | 0.00 | 87 | 1023.4 |
| 20260509151508 | 51 | 61 | 1.0 | 4.0 | 0.00 | 0.00 | 0.00 | 88 | 1023.4 |
| 20260509151002 | 51 | 68 | 1.0 | 4.0 | 0.00 | 0.00 | 0.00 | 89 | 1023.4 |
| 20260509150506 | 50 | 51 | 0.0 | 2.0 | 0.00 | 0.00 | 0.00 | 91 | 1023.5 |
| 20260509150028 | 50 | 68 | 0.0 | 3.0 | 0.00 | 0.00 | 0.00 | 92 | 1023.6 |
| 20260509145503 | 49 | 239 | 0.0 | 3.0 | 0.00 | 0.00 | 0.00 | 92 | 1023.7 |
| 20260509145004 | 49 | 68 | 0.0 | 2.0 | 0.00 | 0.00 | 0.00 | 92 | 1023.6 |
| 20260509144510 | 49 | 80 | 0.0 | 2.0 | 0.00 | 0.00 | 0.00 | 92 | 1023.6 |
| 20260509144003 | 49 | 51 | 0.0 | 2.0 | 0.00 | 0.00 | 0.00 | 92 | 1023.9 |
| 20260509143503 | 48 | 34 | 0.0 | 2.0 | 0.00 | 0.00 | 0.00 | 92 | 1023.8 |
| 20260509143010 | 48 | 309 | 0.0 | 1.0 | 0.00 | 0.00 | 0.00 | 91 | 1023.8 |
| 20260509142505 | 48 | 51 | 0.0 | 1.0 | 0.00 | 0.00 | 0.00 | 91 | 1023.9 |
| 20260509142003 | 48 | 51 | 0.0 | 1.0 | 0.00 | 0.00 | 0.00 | 90 | 1023.8 |
| 20260509141508 | 48 | 93 | 0.0 | 1.0 | 0.00 | 0.00 | 0.00 | 90 | 1023.8 |
| 20260509141004 | 48 | 68 | 0.0 | 1.0 | 0.00 | 0.00 | 0.00 | 90 | 1023.9 |
| 20260509140506 | 49 | 51 | 0.0 | 1.0 | 0.00 | 0.00 | 0.00 | 90 | 1024.0 |
| 20260509140013 | 49 | 178 | 0.0 | 1.0 | 0.00 | 0.00 | 0.00 | 90 | 1024.0 |
| 20260509135502 | 49 | 51 | 0.0 | 2.0 | 0.00 | 0.00 | 0.00 | 90 | 1024.0 |
| 20260509135006 | 49 | 93 | 0.0 | 2.0 | 0.00 | 0.00 | 0.00 | 89 | 1023.9 |
| 20260509134512 | 49 | 41 | 0.0 | 1.0 | 0.00 | 0.00 | 0.00 | 89 | 1024.0 |
| 20260509134003 | 49 | 309 | 0.0 | 1.0 | 0.00 | 0.00 | 0.00 | 89 | 1023.9 |
| 20260509133503 | 49 | 68 | 0.0 | 1.0 | 0.00 | 0.00 | 0.00 | 88 | 1023.9 |
| 20260509133008 | 49 | 93 | 0.0 | 1.0 | 0.00 | 0.00 | 0.00 | 88 | 1023.9 |
| 20260509132505 | 50 | 51 | 0.0 | 1.0 | 0.00 | 0.00 | 0.00 | 89 | 1024.0 |
| 20260509132007 | 50 | 9 | 0.0 | 1.0 | 0.00 | 0.00 | 0.00 | 89 | 1023.9 |
| 20260509131511 | 50 | 34 | 0.0 | 1.0 | 0.00 | 0.00 | 0.00 | 89 | 1023.9 |
| 20260509131006 | 50 | 51 | 0.0 | 1.0 | 0.00 | 0.00 | 0.00 | 89 | 1023.9 |
| 20260509130503 | 50 | 51 | 0.0 | 1.0 | 0.00 | 0.00 | 0.00 | 89 | 1023.8 |
| 20260509130027 | 50 | 51 | 0.0 | 1.0 | 0.00 | 0.00 | 0.00 | 89 | 1023.9 |
| 20260509125505 | 50 | 34 | 0.0 | 1.0 | 0.00 | 0.00 | 0.00 | 89 | 1023.8 |
| 20260509125002 | 50 | 51 | 0.0 | 0.0 | 0.00 | 0.00 | 0.00 | 89 | 1023.9 |
| 20260509124511 | 50 | 93 | 0.0 | 0.0 | 0.00 | 0.00 | 0.00 | 89 | 1023.9 |
| 20260509124003 | 50 | 93 | 0.0 | 0.0 | 0.00 | 0.00 | 0.00 | 89 | 1023.9 |
| 20260509123503 | 50 | 51 | 0.0 | 0.0 | 0.00 | 0.00 | 0.00 | 89 | 1024.0 |
| 20260509123014 | 50 | 93 | 0.0 | 0.0 | 0.00 | 0.00 | 0.00 | 89 | 1024.0 |
| 20260509122504 | 50 | 51 | 0.0 | 0.0 | 0.00 | 0.00 | 0.00 | 89 | 1024.0 |
| 20260509122003 | 50 | 51 | 0.0 | 1.0 | 0.00 | 0.00 | 0.00 | 89 | 1024.0 |
| 20260509121511 | 50 | 93 | 0.0 | 1.0 | 0.00 | 0.00 | 0.00 | 89 | 1024.0 |
| 20260509121004 | 50 | 51 | 0.0 | 1.0 | 0.00 | 0.00 | 0.00 | 89 | 1024.1 |
| 20260509120504 | 50 | 51 | 0.0 | 1.0 | 0.00 | 0.00 | 0.00 | 89 | 1024.1 |
| 20260509120011 | 50 | 51 | 0.0 | 1.0 | 0.00 | 0.00 | 0.00 | 89 | 1024.1 |
| 20260509115504 | 50 | 51 | 0.0 | 1.0 | 0.00 | 0.00 | 0.00 | 89 | 1024.1 |
| 20260509115006 | 50 | 68 | 0.0 | 2.0 | 0.00 | 0.00 | 0.00 | 89 | 1024.1 |
| 20260509114512 | 50 | 51 | 0.0 | 2.0 | 0.00 | 0.00 | 0.00 | 89 | 1024.1 |
| 20260509114005 | 50 | 34 | 0.0 | 1.0 | 0.00 | 0.00 | 0.00 | 88 | 1024.1 |
| 20260509113503 | 50 | 51 | 0.0 | 1.0 | 0.00 | 0.00 | 0.00 | 88 | 1024.2 |
| 20260509113012 | 50 | 68 | 0.0 | 1.0 | 0.00 | 0.00 | 0.00 | 88 | 1024.2 |
| 20260509112503 | 50 | 51 | 0.0 | 1.0 | 0.00 | 0.00 | 0.00 | 88 | 1024.3 |
| 20260509112003 | 50 | 51 | 0.0 | 1.0 | 0.00 | 0.00 | 0.00 | 87 | 1024.3 |
| 20260509111511 | 50 | 51 | 0.0 | 1.0 | 0.00 | 0.00 | 0.00 | 87 | 1024.3 |
| 20260509111004 | 50 | 34 | 0.0 | 1.0 | 0.00 | 0.00 | 0.00 | 87 | 1024.4 |
| 20260509110505 | 50 | 68 | 0.0 | 1.0 | 0.00 | 0.00 | 0.00 | 87 | 1024.3 |
| 20260509110012 | 50 | 93 | 0.0 | 1.0 | 0.00 | 0.00 | 0.00 | 87 | 1024.3 |
| 20260509105503 | 50 | 68 | 0.0 | 1.0 | 0.00 | 0.00 | 0.00 | 87 | 1024.4 |
| 20260509105003 | 50 | 68 | 0.0 | 1.0 | 0.00 | 0.00 | 0.00 | 87 | 1024.5 |
| 20260509104511 | 50 | 93 | 0.0 | 1.0 | 0.00 | 0.00 | 0.00 | 87 | 1024.4 |
| 20260509104003 | 50 | 137 | 0.0 | 1.0 | 0.00 | 0.00 | 0.00 | 87 | 1024.4 |
| 20260509103503 | 50 | 137 | 0.0 | 1.0 | 0.00 | 0.00 | 0.00 | 87 | 1024.4 |
| 20260509103011 | 50 | 93 | 0.0 | 1.0 | 0.00 | 0.00 | 0.00 | 87 | 1024.4 |
| 20260509102503 | 50 | 120 | 0.0 | 1.0 | 0.00 | 0.00 | 0.00 | 87 | 1024.4 |
| 20260509102007 | 50 | 93 | 0.0 | 1.0 | 0.00 | 0.00 | 0.00 | 87 | 1024.4 |
| 20260509101516 | 50 | 178 | 0.0 | 1.0 | 0.00 | 0.00 | 0.00 | 87 | 1024.4 |
| 20260509101002 | 50 | 51 | 0.0 | 1.0 | 0.00 | 0.00 | 0.00 | 87 | 1024.4 |
| 20260509100502 | 50 | 51 | 0.0 | 1.0 | 0.00 | 0.00 | 0.00 | 87 | 1024.5 |
| 20260509100010 | 50 | 51 | 0.0 | 1.0 | 0.00 | 0.00 | 0.00 | 87 | 1024.4 |
| 20260509095504 | 50 | 68 | 0.0 | 1.0 | 0.00 | 0.00 | 0.00 | 87 | 1024.5 |
| 20260509095004 | 50 | 51 | 0.0 | 1.0 | 0.00 | 0.00 | 0.00 | 87 | 1024.5 |
| 20260509094512 | 50 | 93 | 0.0 | 1.0 | 0.00 | 0.00 | 0.00 | 87 | 1024.5 |
| 20260509094004 | 50 | 93 | 0.0 | 1.0 | 0.00 | 0.00 | 0.00 | 87 | 1024.5 |
| 20260509093505 | 50 | 120 | 0.0 | 1.0 | 0.00 | 0.00 | 0.00 | 88 | 1024.5 |
| 20260509093008 | 50 | 93 | 0.0 | 1.0 | 0.00 | 0.00 | 0.00 | 87 | 1024.5 |
| 20260509092504 | 50 | 68 | 0.0 | 1.0 | 0.00 | 0.00 | 0.00 | 87 | 1024.5 |
| 20260509092003 | 50 | 137 | 0.0 | 1.0 | 0.00 | 0.00 | 0.00 | 88 | 1024.5 |
| 20260509091512 | 50 | 137 | 0.0 | 1.0 | 0.00 | 0.00 | 0.00 | 87 | 1024.5 |
| 20260509091003 | 50 | 119 | 0.0 | 1.0 | 0.00 | 0.00 | 0.00 | 87 | 1024.5 |
| 20260509090503 | 50 | 93 | 0.0 | 1.0 | 0.00 | 0.00 | 0.00 | 87 | 1024.5 |
| 20260509090011 | 50 | 93 | 0.0 | 0.0 | 0.00 | 0.00 | 0.00 | 86 | 1024.5 |
| 20260509085502 | 50 | 51 | 0.0 | 1.0 | 0.00 | 0.00 | 0.00 | 85 | 1024.5 |
| 20260509085002 | 50 | 93 | 0.0 | 1.0 | 0.00 | 0.00 | 0.00 | 85 | 1024.5 |
| 20260509084515 | 50 | 51 | 0.0 | 1.0 | 0.00 | 0.00 | 0.00 | 85 | 1024.6 |
| 20260509084005 | 50 | 93 | 0.0 | 1.0 | 0.00 | 0.00 | 0.00 | 86 | 1024.6 |
| 20260509083503 | 50 | 61 | 0.0 | 1.0 | 0.00 | 0.00 | 0.00 | 86 | 1024.6 |
| 20260509083027 | 50 | 51 | 0.0 | 1.0 | 0.00 | 0.00 | 0.00 | 86 | 1024.5 |
| 20260509082502 | 50 | 120 | 0.0 | 1.0 | 0.00 | 0.00 | 0.00 | 85 | 1024.5 |
| 20260509082002 | 50 | 93 | 0.0 | 1.0 | 0.00 | 0.00 | 0.00 | 85 | 1024.4 |
| 20260509081511 | 50 | 93 | 0.0 | 1.0 | 0.00 | 0.00 | 0.00 | 85 | 1024.5 |
| 20260509081004 | 51 | 93 | 0.0 | 1.0 | 0.00 | 0.00 | 0.00 | 85 | 1024.5 |
| 20260509080507 | 51 | 68 | 0.0 | 1.0 | 0.00 | 0.00 | 0.00 | 84 | 1024.4 |
| 20260509080009 | 51 | 51 | 0.0 | 1.0 | 0.00 | 0.00 | 0.00 | 84 | 1024.5 |
| 20260509075503 | 51 | 68 | 0.0 | 1.0 | 0.00 | 0.00 | 0.00 | 84 | 1024.4 |
| 20260509075003 | 51 | 68 | 0.0 | 1.0 | 0.00 | 0.00 | 0.00 | 83 | 1024.4 |
| 20260509074511 | 51 | 51 | 0.0 | 1.0 | 0.00 | 0.00 | 0.00 | 83 | 1024.3 |
| 20260509074002 | 51 | 137 | 0.0 | 1.0 | 0.00 | 0.00 | 0.00 | 82 | 1024.2 |
| 20260509073503 | 52 | 265 | 0.0 | 1.0 | 0.00 | 0.00 | 0.00 | 82 | 1024.2 |
| 20260509073020 | 52 | 93 | 0.0 | 1.0 | 0.00 | 0.00 | 0.00 | 82 | 1024.2 |
| 20260509072510 | 52 | 178 | 0.0 | 1.0 | 0.00 | 0.00 | 0.00 | 82 | 1024.1 |
| 20260509072011 | 52 | 51 | 0.0 | 1.0 | 0.00 | 0.00 | 0.00 | 82 | 1024.0 |
| 20260509071537 | 52 | 51 | 0.0 | 1.0 | 0.00 | 0.00 | 0.00 | 82 | 1024.0 |
| 20260509071008 | 52 | 51 | 0.0 | 1.0 | 0.00 | 0.00 | 0.00 | 83 | 1024.0 |
| 20260509070512 | 52 | 68 | 0.0 | 1.0 | 0.00 | 0.00 | 0.00 | 82 | 1024.0 |
| 20260509070030 | 53 | 93 | 0.0 | 1.0 | 0.00 | 0.00 | 0.00 | 82 | 1024.0 |
| 20260509065511 | 53 | 93 | 0.0 | 1.0 | 0.00 | 0.00 | 0.00 | 81 | 1024.0 |
| 20260509065012 | 53 | 9 | 0.0 | 1.0 | 0.00 | 0.00 | 0.00 | 81 | 1024.0 |
| 20260509064529 | 53 | 51 | 0.0 | 1.0 | 0.00 | 0.00 | 0.00 | 81 | 1023.9 |
| 20260509064010 | 53 | 51 | 0.0 | 1.0 | 0.00 | 0.00 | 0.00 | 80 | 1023.9 |
| 20260509063516 | 53 | 93 | 0.0 | 1.0 | 0.00 | 0.00 | 0.00 | 80 | 1023.9 |
| 20260509063032 | 53 | 51 | 0.0 | 1.0 | 0.00 | 0.00 | 0.00 | 81 | 1024.0 |
| 20260509062511 | 53 | 93 | 0.0 | 1.0 | 0.00 | 0.00 | 0.00 | 81 | 1023.9 |
| 20260509062014 | 53 | 93 | 0.0 | 1.0 | 0.00 | 0.00 | 0.00 | 81 | 1023.8 |
| 20260509061528 | 53 | 93 | 0.0 | 1.0 | 0.00 | 0.00 | 0.00 | 80 | 1023.8 |
| 20260509061014 | 53 | 93 | 0.0 | 1.0 | 0.00 | 0.00 | 0.00 | 81 | 1023.8 |
| 20260509060510 | 53 | 93 | 0.0 | 1.0 | 0.00 | 0.00 | 0.00 | 81 | 1023.8 |
| 20260509060028 | 53 | 26 | 0.0 | 1.0 | 0.00 | 0.00 | 0.00 | 80 | 1023.8 |
| 20260509055511 | 53 | 9 | 0.0 | 1.0 | 0.00 | 0.00 | 0.00 | 80 | 1023.7 |
| 20260509055009 | 53 | 68 | 0.0 | 1.0 | 0.00 | 0.00 | 0.00 | 80 | 1023.8 |
| 20260509054531 | 53 | 51 | 0.0 | 1.0 | 0.00 | 0.00 | 0.00 | 80 | 1023.7 |
| 20260509054009 | 53 | 153 | 0.0 | 1.0 | 0.00 | 0.00 | 0.00 | 80 | 1023.7 |
| 20260509053511 | 53 | 265 | 0.0 | 1.0 | 0.00 | 0.00 | 0.00 | 81 | 1023.6 |
| 20260509053039 | 54 | 51 | 0.0 | 1.0 | 0.00 | 0.00 | 0.00 | 79 | 1023.5 |
| 20260509052510 | 54 | 51 | 0.0 | 1.0 | 0.00 | 0.00 | 0.00 | 80 | 1023.5 |
| 20260509052012 | 54 | 34 | 0.0 | 1.0 | 0.00 | 0.00 | 0.00 | 80 | 1023.4 |
| 20260509051535 | 54 | 34 | 0.0 | 1.0 | 0.00 | 0.00 | 0.00 | 80 | 1023.5 |
| 20260509051011 | 54 | 51 | 0.0 | 1.0 | 0.00 | 0.00 | 0.00 | 79 | 1023.5 |
| 20260509050511 | 54 | 68 | 0.0 | 1.0 | 0.00 | 0.00 | 0.00 | 79 | 1023.5 |
| 20260509050030 | 54 | 93 | 0.0 | 1.0 | 0.00 | 0.00 | 0.00 | 79 | 1023.6 |
| 20260509045519 | 54 | 68 | 0.0 | 1.0 | 0.00 | 0.00 | 0.00 | 78 | 1023.6 |
| 20260509045012 | 54 | 68 | 0.0 | 1.0 | 0.00 | 0.00 | 0.00 | 78 | 1023.5 |
| 20260509044530 | 54 | 68 | 0.0 | 1.0 | 0.00 | 0.00 | 0.00 | 78 | 1023.6 |
| 20260509044011 | 55 | 51 | 0.0 | 1.0 | 0.00 | 0.00 | 0.00 | 77 | 1023.5 |
| 20260509043510 | 55 | 9 | 0.0 | 1.0 | 0.00 | 0.00 | 0.00 | 77 | 1023.5 |
| 20260509043030 | 55 | 93 | 0.0 | 1.0 | 0.00 | 0.00 | 0.00 | 76 | 1023.4 |
| 20260509042508 | 55 | 68 | 0.0 | 1.0 | 0.00 | 0.00 | 0.00 | 76 | 1023.5 |
| 20260509042018 | 55 | 93 | 0.0 | 1.0 | 0.00 | 0.00 | 0.00 | 75 | 1023.4 |
| 20260509041529 | 55 | 93 | 0.0 | 1.0 | 0.00 | 0.00 | 0.00 | 75 | 1023.3 |
| 20260509041013 | 55 | 51 | 0.0 | 1.0 | 0.00 | 0.00 | 0.00 | 74 | 1023.4 |
| 20260509040511 | 56 | 51 | 0.0 | 1.0 | 0.00 | 0.00 | 0.00 | 74 | 1023.3 |
| 20260509040031 | 56 | 51 | 0.0 | 1.0 | 0.00 | 0.00 | 0.00 | 74 | 1023.2 |
| 20260509035511 | 56 | 51 | 0.0 | 1.0 | 0.00 | 0.00 | 0.00 | 74 | 1023.2 |
| 20260509035012 | 56 | 68 | 0.0 | 1.0 | 0.00 | 0.00 | 0.00 | 73 | 1023.2 |
| 20260509034537 | 56 | 93 | 0.0 | 1.0 | 0.00 | 0.00 | 0.00 | 73 | 1023.1 |
| 20260509034010 | 57 | 51 | 0.0 | 1.0 | 0.00 | 0.00 | 0.00 | 73 | 1023.0 |
| 20260509033512 | 57 | 51 | 0.0 | 1.0 | 0.00 | 0.00 | 0.00 | 72 | 1023.1 |
| 20260509033030 | 57 | 51 | 0.0 | 1.0 | 0.00 | 0.00 | 0.00 | 71 | 1023.1 |
| 20260509032509 | 57 | 51 | 0.0 | 1.0 | 0.00 | 0.00 | 0.00 | 72 | 1023.1 |
| 20260509032009 | 57 | 93 | 0.0 | 1.0 | 0.00 | 0.00 | 0.00 | 72 | 1023.0 |
| 20260509031547 | 57 | 76 | 0.0 | 1.0 | 0.00 | 0.00 | 0.00 | 72 | 1023.1 |
| 20260509031012 | 57 | 51 | 0.0 | 1.0 | 0.00 | 0.00 | 0.00 | 72 | 1023.1 |
| 20260509030515 | 58 | 51 | 0.0 | 1.0 | 0.00 | 0.00 | 0.00 | 71 | 1023.0 |
| 20260509030054 | 58 | 51 | 0.0 | 1.0 | 0.00 | 0.00 | 0.00 | 71 | 1023.0 |
| 20260509025512 | 58 | 51 | 0.0 | 1.0 | 0.00 | 0.00 | 0.00 | 71 | 1023.0 |
| 20260509025010 | 58 | 9 | 0.0 | 1.0 | 0.00 | 0.00 | 0.00 | 71 | 1023.0 |
| 20260509024535 | 58 | 51 | 0.0 | 2.0 | 0.00 | 0.00 | 0.00 | 69 | 1023.0 |
| 20260509024010 | 58 | 34 | 0.0 | 2.0 | 0.00 | 0.00 | 0.00 | 69 | 1023.0 |
| 20260509023511 | 58 | 34 | 0.0 | 2.0 | 0.00 | 0.00 | 0.00 | 69 | 1022.9 |
| 20260509023034 | 58 | 76 | 0.0 | 1.0 | 0.00 | 0.00 | 0.00 | 69 | 1022.9 |
| 20260509022510 | 58 | 68 | 0.0 | 1.0 | 0.00 | 0.00 | 0.00 | 67 | 1022.9 |
| 20260509022013 | 59 | 309 | 0.0 | 2.0 | 0.00 | 0.00 | 0.00 | 67 | 1022.9 |
| 20260509021536 | 59 | 325 | 0.0 | 2.0 | 0.00 | 0.00 | 0.00 | 67 | 1022.9 |
| 20260509021010 | 59 | 93 | 0.0 | 3.0 | 0.00 | 0.00 | 0.00 | 67 | 1022.8 |
| 20260509020508 | 59 | 215 | 1.0 | 3.0 | 0.00 | 0.00 | 0.00 | 64 | 1022.8 |
| 20260509020027 | 59 | 51 | 0.0 | 1.0 | 0.00 | 0.00 | 0.00 | 64 | 1022.8 |
| 20260509015511 | 59 | 76 | 0.0 | 2.0 | 0.00 | 0.00 | 0.00 | 67 | 1022.8 |
| 20260509015011 | 59 | 178 | 0.0 | 2.0 | 0.00 | 0.00 | 0.00 | 65 | 1022.8 |
| 20260509014530 | 59 | 153 | 0.0 | 2.0 | 0.00 | 0.00 | 0.00 | 64 | 1022.8 |
| 20260509014015 | 59 | 115 | 1.0 | 2.0 | 0.00 | 0.00 | 0.00 | 60 | 1022.9 |
| 20260509013513 | 59 | 178 | 0.0 | 4.0 | 0.00 | 0.00 | 0.00 | 65 | 1022.9 |
| 20260509013027 | 59 | 153 | 0.0 | 4.0 | 0.00 | 0.00 | 0.00 | 60 | 1023.0 |
| 20260509012512 | 59 | 178 | 1.0 | 2.0 | 0.00 | 0.00 | 0.00 | 64 | 1023.0 |
| 20260509012019 | 59 | 137 | 0.0 | 3.0 | 0.00 | 0.00 | 0.00 | 63 | 1022.9 |
| 20260509011506 | 59 | 178 | 1.0 | 3.0 | 0.00 | 0.00 | 0.00 | 63 | 1022.9 |
| 20260509011004 | 59 | 265 | 0.0 | 5.0 | 0.00 | 0.00 | 0.00 | 61 | 1022.9 |
| 20260509010503 | 59 | 153 | 1.0 | 5.0 | 0.00 | 0.00 | 0.00 | 60 | 1022.9 |
| 20260509010008 | 59 | 72 | 1.0 | 3.0 | 0.00 | 0.00 | 0.00 | 61 | 1022.9 |
| 20260509005504 | 59 | 178 | 0.0 | 3.0 | 0.00 | 0.00 | 0.00 | 63 | 1023.0 |
| 20260509005003 | 59 | 51 | 0.0 | 6.0 | 0.00 | 0.00 | 0.00 | 65 | 1023.0 |
| 20260509004507 | 59 | 178 | 0.0 | 6.0 | 0.00 | 0.00 | 0.00 | 64 | 1022.9 |
| 20260509004003 | 59 | 142 | 3.0 | 5.0 | 0.00 | 0.00 | 0.00 | 59 | 1022.9 |
| 20260509003504 | 59 | 153 | 0.0 | 6.0 | 0.00 | 0.00 | 0.00 | 63 | 1022.9 |
| 20260509003011 | 59 | 146 | 0.0 | 6.0 | 0.00 | 0.00 | 0.00 | 61 | 1022.9 |
| 20260509002503 | 58 | 120 | 0.0 | 4.0 | 0.00 | 0.00 | 0.00 | 63 | 1022.9 |
| 20260509002003 | 58 | 123 | 0.0 | 4.0 | 0.00 | 0.00 | 0.00 | 64 | 1022.9 |
| 20260509001512 | 58 | 93 | 0.0 | 6.0 | 0.00 | 0.00 | 0.00 | 65 | 1022.9 |
| 20260509001004 | 58 | 76 | 0.0 | 8.0 | 0.00 | 0.00 | 0.00 | 65 | 1022.9 |
| 20260509000503 | 58 | 196 | 2.0 | 8.0 | 0.00 | 0.00 | 0.00 | 62 | 1022.9 |
| 20260509000007 | 58 | 134 | 2.0 | 7.0 | 0.00 | 0.00 | 0.00 | 63 | 1022.8 |
| 20260508235505 | 58 | 165 | 1.0 | 7.0 | 0.00 | 0.00 | 0.00 | 62 | 1022.8 |
| 20260508235006 | 59 | 173 | 3.0 | 6.0 | 0.00 | 0.00 | 0.00 | 62 | 1022.8 |
| 20260508234512 | 59 | 153 | 1.0 | 4.0 | 0.00 | 0.00 | 0.00 | 63 | 1022.9 |
| 20260508234011 | 59 | 128 | 1.0 | 6.0 | 0.00 | 0.00 | 0.00 | 62 | 1022.9 |
| 20260508233504 | 58 | 201 | 0.0 | 6.0 | 0.00 | 0.00 | 0.00 | 63 | 1022.9 |
| 20260508233009 | 58 | 120 | 1.0 | 6.0 | 0.00 | 0.00 | 0.00 | 59 | 1022.8 |
| 20260508232504 | 58 | 265 | 2.0 | 11.0 | 0.00 | 0.00 | 0.00 | 59 | 1022.7 |
| 20260508232003 | 59 | 139 | 5.0 | 11.0 | 0.00 | 0.00 | 0.00 | 60 | 1022.8 |
| 20260508231510 | 58 | 126 | 2.0 | 7.0 | 0.00 | 0.00 | 0.00 | 60 | 1022.8 |
| 20260508231004 | 58 | 132 | 2.0 | 11.0 | 0.00 | 0.00 | 0.00 | 62 | 1022.7 |
| 20260508230503 | 58 | 137 | 5.0 | 12.0 | 0.00 | 0.00 | 0.00 | 62 | 1022.8 |
| 20260508230009 | 59 | 193 | 4.0 | 12.0 | 0.00 | 0.00 | 0.00 | 58 | 1022.7 |
| 20260508225504 | 59 | 139 | 4.0 | 10.0 | 0.00 | 0.00 | 0.00 | 59 | 1022.7 |
| 20260508225004 | 59 | 139 | 4.0 | 9.0 | 0.00 | 0.00 | 0.00 | 58 | 1022.7 |
| 20260508224507 | 58 | 162 | 1.0 | 12.0 | 0.00 | 0.00 | 0.00 | 61 | 1022.8 |
| 20260508224003 | 58 | 178 | 3.0 | 12.0 | 0.00 | 0.00 | 0.00 | 61 | 1022.8 |
| 20260508223504 | 59 | 153 | 2.0 | 8.0 | 0.00 | 0.00 | 0.00 | 61 | 1022.7 |
| 20260508223027 | 59 | 137 | 2.0 | 7.0 | 0.00 | 0.00 | 0.00 | 64 | 1022.7 |
| 20260508222502 | 59 | 142 | 2.0 | 6.0 | 0.00 | 0.00 | 0.00 | 61 | 1022.8 |
| 20260508222003 | 59 | 171 | 1.0 | 13.0 | 0.00 | 0.00 | 0.00 | 64 | 1022.7 |
| 20260508221508 | 59 | 123 | 1.0 | 13.0 | 0.00 | 0.00 | 0.00 | 63 | 1022.8 |